Regional Weather Roundup
Issued by NWS

Home | Current Version | Previous Version | Text Only | Print | Product List | Glossary On
Versions: 1 2 3 4 5 6 7 8 9 10 11 12 13 14 15 16 17 18 19 20 21 22 23 24 25 26 27 28 29 30 31 32 33 34 35 36 37 38 39 40 41 42 43 44 45 46 47 48 49 50
000
ASUS43 KTOP 231259
RWRKS

WEATHER ROUNDUP FOR KANSAS
NATIONAL WEATHER SERVICE GOODLAND KS
700 AM CST FRI FEB 23 2018

NOTE:  "FAIR" INDICATES FEW OR NO CLOUDS BELOW 12,000 FEET WITH NO
SIGNIFICANT WEATHER AND/OR OBSTRUCTIONS TO VISIBILITY.

KSZ001>006-013>018-027>032-041>047-231400-
NORTHWEST KANSAS

CITY           SKY/WX    TMP DP  RH WIND       PRES   REMARKS
GOODLAND       FOG       18  16  92 NW9       30.10S VSB 1/2
HAYS           CLOUDY    25  23  93 NW7       30.22R FOG
HILL CITY      CLOUDY    20  19  96 NW6       30.19F
RUSSELL        CLOUDY    26  25  96 CALM      30.22R
$$

KSZ061>065-074>080-084>089-231400-
SOUTHWEST KANSAS

CITY           SKY/WX    TMP DP  RH WIND       PRES   REMARKS
DODGE CITY     CLOUDY    29  27  92 NE10      30.16S WCI  20
GARDEN CITY    CLOUDY    26  26 100 NE9       30.14S FOG
GREAT BEND     CLOUDY    26  25  96 N9        30.22R
LIBERAL        MIX PCPN  27  26  96 E7        30.16R VSB 3/4
$$

KSZ066>073-081>083-090>101-231400-
SOUTHEAST KANSAS

CITY           SKY/WX    TMP DP  RH WIND       PRES   REMARKS
CHANUTE        CLOUDY    35  34  96 CALM      30.26R
COFFEYVILLE    CLOUDY    36  36 100 SE3       30.28R
HUTCHINSON     CLOUDY    32  29  88 N7        30.23R
MEDICINE LODGE   N/A     32  30  92 NE9       30.23R
NEWTON         CLOUDY    30  29  96 N10       30.24R WCI  21
PARSONS        CLOUDY    36  35  96 CALM      30.27R
WICHITA INTL   CLOUDY    33  32  96 E3        30.24R
WICHITA JABRA  CLOUDY    32  32 100 CALM      30.24R FOG
WICHITA MCCONL CLOUDY    32  32  99 CALM      30.24
WINFIELD       CLOUDY    32  32 100 CALM      30.26R
$$

KSZ007>012-019>026-033>040-048>060-102>105-231400-
NORTHEAST KANSAS

CITY           SKY/WX    TMP DP  RH WIND       PRES   REMARKS
CONCORDIA      CLOUDY    21  19  92 CALM      30.23R
EMPORIA        CLOUDY    32  30  92 N5        30.24R
LAWRENCE       CLOUDY    33  32  96 W3        30.26R
MANHATTAN      CLOUDY    32  27  81 CALM      30.26R
OLATHE IND     CLOUDY    32  32 100 NW7       30.25R
OLATHE EXE     CLOUDY    32  32 100 NW6       30.24R
SALINA         CLOUDY    29  27  92 NW6       30.26R
TOPEKA BILLARD CLOUDY    33  32  96 NW6       30.26R
TOPEKA FORBES  CLOUDY    33  30  88 NW9       30.24S
$$




USA.gov is the U.S. government's official web portal to all federal, state and local government web resources and services.